| time (UTC) | temp C | wind direction | speed KPH | gust KPH | rain 1hr cm | rain 24hr cm | rain mn cm | humidity % | barometer mb |
| 20260506214532 | 13 | 338 | 1.6 | 4.8 | 0.00 | 2.13 | 2.08 | 78 | 1011.3 |
| 20260506213032 | 13 | 338 | 3.2 | 8.0 | 0.00 | 2.13 | 2.08 | 77 | 1011.2 |
| 20260506211531 | 14 | 44 | 3.2 | 9.7 | 0.00 | 2.13 | 2.08 | 76 | 1011.2 |
| 20260506210037 | 14 | 329 | 1.6 | 4.8 | 0.00 | 2.13 | 2.08 | 77 | 1011.2 |
| 20260506204536 | 14 | 332 | 1.6 | 6.4 | 0.00 | 2.13 | 2.08 | 76 | 1010.9 |
| 20260506203033 | 14 | 15 | 1.6 | 4.8 | 0.00 | 2.13 | 2.08 | 76 | 1010.8 |
| 20260506201535 | 14 | 359 | 0.0 | 3.2 | 0.00 | 2.13 | 2.08 | 77 | 1010.6 |
| 20260506200039 | 14 | 347 | 1.6 | 8.0 | 0.00 | 2.13 | 2.08 | 77 | 1010.3 |
| 20260506194537 | 14 | 37 | 4.8 | 9.7 | 0.00 | 2.13 | 2.08 | 75 | 1010.0 |
| 20260506193032 | 14 | 9 | 4.8 | 9.7 | 0.00 | 2.13 | 2.08 | 77 | 1009.8 |
| 20260506191532 | 15 | 55 | 4.8 | 8.0 | 0.00 | 2.13 | 2.08 | 78 | 1009.6 |
| 20260506190031 | 15 | 38 | 4.8 | 11.3 | 0.00 | 2.13 | 2.08 | 78 | 1009.2 |
| 20260506184530 | 15 | 67 | 4.8 | 9.7 | 0.00 | 2.13 | 2.08 | 78 | 1009.0 |
| 20260506183036 | 15 | 47 | 3.2 | 8.0 | 0.00 | 2.13 | 2.08 | 78 | 1008.7 |
| 20260506181534 | 15 | 61 | 3.2 | 11.3 | 0.00 | 2.13 | 2.08 | 78 | 1008.3 |
| 20260506180039 | 15 | 63 | 11.3 | 20.9 | 0.00 | 2.13 | 2.08 | 77 | 1007.8 |
| 20260506174529 | 16 | 60 | 11.3 | 16.1 | 0.00 | 2.13 | 2.08 | 75 | 1007.8 |
| 20260506173039 | 16 | 63 | 12.9 | 20.9 | 0.00 | 2.13 | 2.08 | 72 | 1007.7 |
| 20260506171534 | 17 | 65 | 16.1 | 27.4 | 0.00 | 2.13 | 2.08 | 64 | 1007.3 |
| 20260506170032 | 18 | 60 | 8.0 | 12.9 | 0.00 | 2.13 | 2.08 | 64 | 1007.1 |
| 20260506164537 | 18 | 59 | 4.8 | 11.3 | 0.00 | 2.13 | 2.08 | 64 | 1006.9 |
| 20260506163030 | 18 | 33 | 9.7 | 17.7 | 0.00 | 2.13 | 2.08 | 62 | 1006.8 |
| 20260506161531 | 18 | 32 | 6.4 | 14.5 | 0.00 | 2.13 | 2.08 | 59 | 1006.6 |
| 20260506160034 | 18 | 6 | 9.7 | 22.5 | 0.00 | 2.13 | 2.08 | 59 | 1006.6 |
| 20260506154542 | 18 | 342 | 11.3 | 22.5 | 0.00 | 2.13 | 2.08 | 60 | 1006.6 |
| 20260506153032 | 18 | 337 | 8.0 | 17.7 | 0.00 | 2.13 | 2.08 | 61 | 1006.8 |
| 20260506151533 | 17 | 354 | 9.7 | 17.7 | 0.00 | 2.13 | 2.08 | 61 | 1007.0 |
| 20260506150029 | 18 | 26 | 11.3 | 20.9 | 0.00 | 2.13 | 2.08 | 66 | 1007.1 |
| 20260506144534 | 19 | 336 | 9.7 | 16.1 | 0.00 | 2.13 | 2.08 | 67 | 1006.9 |
| 20260506143036 | 18 | 354 | 8.0 | 16.1 | 0.00 | 2.13 | 2.08 | 67 | 1006.9 |
| 20260506141532 | 18 | 52 | 4.8 | 9.7 | 0.00 | 2.13 | 2.08 | 67 | 1007.1 |
| 20260506140030 | 18 | 350 | 3.2 | 8.0 | 0.00 | 2.13 | 2.08 | 65 | 1007.2 |
| 20260506134531 | 18 | 68 | 4.8 | 8.0 | 0.00 | 2.13 | 2.08 | 64 | 1007.3 |
| 20260506133033 | 18 | 340 | 6.4 | 11.3 | 0.00 | 2.13 | 2.08 | 63 | 1007.2 |
| 20260506131537 | 19 | 79 | 6.4 | 12.9 | 0.00 | 2.13 | 2.08 | 62 | 1007.2 |
| 20260506130029 | 20 | 120 | 3.2 | 8.0 | 0.00 | 2.13 | 2.08 | 60 | 1007.3 |
| 20260506124538 | 19 | 171 | 4.8 | 9.7 | 0.00 | 2.13 | 2.08 | 61 | 1007.4 |
| 20260506123038 | 19 | 214 | 4.8 | 9.7 | 0.00 | 2.13 | 2.08 | 61 | 1007.4 |
| 20260506121529 | 18 | 172 | 3.2 | 8.0 | 0.00 | 2.13 | 2.08 | 64 | 1007.3 |
| 20260506120055 | 18 | 0 | 3.2 | 9.7 | 0.00 | 2.13 | 2.08 | 63 | 1007.3 |
| 20260506114532 | 17 | 314 | 3.2 | 11.3 | 0.00 | 2.13 | 2.08 | 69 | 1007.4 |
| 20260506113032 | 17 | 49 | 1.6 | 9.7 | 0.00 | 2.13 | 2.08 | 69 | 1007.5 |
| 20260506111531 | 17 | 93 | 3.2 | 11.3 | 0.00 | 2.13 | 2.08 | 67 | 1007.5 |
| 20260506110034 | 17 | 154 | 4.8 | 11.3 | 0.00 | 2.13 | 2.08 | 67 | 1007.6 |
| 20260506104533 | 16 | 129 | 3.2 | 11.3 | 0.00 | 2.13 | 2.08 | 70 | 1007.6 |
| 20260506103035 | 16 | 0 | 1.6 | 4.8 | 0.00 | 2.13 | 2.08 | 73 | 1007.7 |
| 20260506101532 | 15 | 238 | 0.0 | 3.2 | 0.00 | 2.13 | 2.08 | 77 | 1007.6 |
| 20260506100033 | 13 | 321 | 3.2 | 6.4 | 0.00 | 2.13 | 2.08 | 84 | 1007.7 |
| 20260506094536 | 12 | 322 | 3.2 | 4.8 | 0.08 | 2.13 | 2.08 | 88 | 1007.8 |
| 20260506093044 | 12 | 342 | 0.0 | 8.0 | 0.28 | 2.13 | 2.08 | 91 | 1008.1 |
| 20260506091533 | 11 | 317 | 3.2 | 8.0 | 0.56 | 2.13 | 2.08 | 92 | 1008.2 |
| 20260506090033 | 11 | 334 | 4.8 | 8.0 | 0.56 | 2.13 | 2.08 | 91 | 1008.4 |
| 20260506084533 | 10 | 340 | 4.8 | 11.3 | 0.46 | 2.01 | 1.96 | 91 | 1008.5 |
| 20260506083041 | 10 | 323 | 3.2 | 6.4 | 0.36 | 1.85 | 1.80 | 91 | 1008.5 |
| 20260506081534 | 10 | 314 | 3.2 | 6.4 | 0.18 | 1.57 | 1.52 | 91 | 1008.5 |
| 20260506073029 | 10 | 311 | 3.2 | 9.7 | 0.23 | 1.50 | 1.42 | 92 | 1008.4 |
| 20260506071547 | 11 | 321 | 3.2 | 4.8 | 0.25 | 1.40 | 1.35 | 92 | 1008.5 |
| 20260506061535 | 11 | 352 | 0.0 | 3.2 | 0.64 | 1.17 | 1.07 | 93 | 1008.6 |
| 20260506044537 | 11 | 63 | 1.6 | 9.7 | 0.10 | 1.02 | 0.33 | 93 | 1009.0 |
| 20260506043033 | 11 | 47 | 4.8 | 9.7 | 0.08 | 0.97 | 0.28 | 93 | 1009.0 |
| 20260506041538 | 11 | 56 | 3.2 | 6.4 | 0.05 | 0.94 | 0.23 | 93 | 1009.2 |
| 20260506040034 | 11 | 61 | 4.8 | 8.0 | 0.05 | 0.94 | 0.23 | 93 | 1009.2 |
| 20260506034530 | 11 | 65 | 3.2 | 9.7 | 0.03 | 1.12 | 0.20 | 93 | 1009.1 |
| 20260506033035 | 11 | 46 | 3.2 | 8.0 | 0.00 | 1.07 | 0.18 | 93 | 1009.3 |
| 20260506031542 | 12 | 68 | 1.6 | 4.8 | 0.00 | 1.07 | 0.18 | 93 | 1009.7 |
| 20260506030033 | 12 | 73 | 1.6 | 4.8 | 0.00 | 1.07 | 0.18 | 93 | 1009.8 |
| 20260506024534 | 12 | 63 | 3.2 | 6.4 | 0.00 | 1.07 | 0.18 | 93 | 1009.9 |
| 20260506023037 | 12 | 46 | 6.4 | 11.3 | 0.00 | 1.07 | 0.18 | 93 | 1010.1 |
| 20260506021534 | 12 | 63 | 3.2 | 6.4 | 0.00 | 1.07 | 0.18 | 93 | 1010.2 |
| 20260506020032 | 12 | 71 | 3.2 | 6.4 | 0.03 | 1.07 | 0.18 | 93 | 1010.3 |
| 20260506014530 | 12 | 58 | 3.2 | 6.4 | 0.05 | 1.04 | 0.15 | 93 | 1010.2 |
| 20260506013030 | 12 | 59 | 1.6 | 6.4 | 0.10 | 1.04 | 0.15 | 93 | 1010.4 |
| 20260506011530 | 12 | 18 | 3.2 | 4.8 | 0.13 | 1.04 | 0.15 | 92 | 1010.7 |
| 20260506010034 | 12 | 39 | 1.6 | 3.2 | 0.10 | 1.02 | 0.13 | 92 | 1011.1 |
| 20260506004553 | 12 | 60 | 1.6 | 4.8 | 0.08 | 1.02 | 0.08 | 92 | 1011.2 |
| 20260506003032 | 12 | 68 | 1.6 | 3.2 | 0.00 | 0.97 | 0.03 | 92 | 1011.6 |
| 20260506001538 | 12 | 70 | 1.6 | 3.2 | 0.00 | 0.94 | 0.00 | 92 | 1011.8 |
| 20260506000034 | 12 | 74 | 1.6 | 3.2 | 0.00 | 0.94 | 0.00 | 92 | 1011.9 |
| 20260505234602 | 12 | 56 | 1.6 | 3.2 | 0.00 | 0.94 | 0.00 | 92 | 1012.2 |
| 20260505233031 | 12 | 9 | 1.6 | 4.8 | 0.00 | 0.94 | 0.00 | 92 | 1012.1 |
| 20260505231534 | 12 | 18 | 1.6 | 6.4 | 0.00 | 0.94 | 0.00 | 92 | 1012.2 |
| 20260505230035 | 12 | 65 | 1.6 | 3.2 | 0.00 | 0.94 | 0.00 | 91 | 1012.4 |
| 20260505224534 | 12 | 0 | 0.0 | 3.2 | 0.00 | 0.94 | 0.00 | 91 | 1012.6 |
| 20260505223031 | 12 | 0 | 1.6 | 4.8 | 0.00 | 0.94 | 0.00 | 91 | 1012.5 |
| 20260505221533 | 12 | 43 | 1.6 | 6.4 | 0.03 | 0.94 | 0.00 | 91 | 1012.5 |
| 20260505220031 | 12 | 54 | 3.2 | 6.4 | 0.03 | 0.94 | 0.00 | 91 | 1012.7 |